| time (UTC) | temp C | wind direction | speed KPH | gust KPH | rain 1hr cm | rain 24hr cm | rain mn cm | humidity % | barometer mb |
| 20260504050254 | 9 | 3 | 9.7 | 19.3 | 0.00 | 0.00 | 0.00 | 42 | 1014.8 |
| 20260504045251 | 9 | 339 | 9.7 | 19.3 | 0.00 | 0.00 | 0.00 | 41 | 1014.8 |
| 20260504044752 | 9 | 349 | 9.7 | 19.3 | 0.00 | 0.00 | 0.00 | 42 | 1014.8 |
| 20260504044252 | 9 | 326 | 9.7 | 20.9 | 0.00 | 0.00 | 0.00 | 41 | 1014.8 |
| 20260504043251 | 10 | 9 | 9.7 | 19.3 | 0.00 | 0.00 | 0.00 | 41 | 1014.7 |
| 20260504042752 | 10 | 343 | 9.7 | 19.3 | 0.00 | 0.00 | 0.00 | 40 | 1014.6 |
| 20260504042251 | 10 | 338 | 9.7 | 19.3 | 0.00 | 0.00 | 0.00 | 40 | 1014.5 |
| 20260504041752 | 10 | 337 | 9.7 | 22.5 | 0.00 | 0.00 | 0.00 | 39 | 1014.6 |
| 20260504041253 | 10 | 351 | 11.3 | 24.1 | 0.00 | 0.00 | 0.00 | 39 | 1014.4 |
| 20260504040752 | 10 | 3 | 12.9 | 24.1 | 0.00 | 0.00 | 0.00 | 38 | 1014.3 |
| 20260504040252 | 10 | 328 | 14.5 | 22.5 | 0.00 | 0.00 | 0.00 | 38 | 1014.2 |
| 20260504035249 | 10 | 345 | 11.3 | 25.7 | 0.00 | 0.00 | 0.00 | 37 | 1014.1 |
| 20260504034749 | 11 | 326 | 12.9 | 25.7 | 0.00 | 0.00 | 0.00 | 37 | 1014.1 |
| 20260504034251 | 11 | 348 | 12.9 | 25.7 | 0.00 | 0.00 | 0.00 | 36 | 1014.0 |
| 20260504033752 | 11 | 332 | 12.9 | 24.1 | 0.00 | 0.00 | 0.00 | 36 | 1013.8 |
| 20260504033250 | 11 | 321 | 12.9 | 25.7 | 0.00 | 0.00 | 0.00 | 35 | 1013.8 |
| 20260504032750 | 11 | 327 | 12.9 | 30.6 | 0.00 | 0.00 | 0.00 | 35 | 1013.7 |
| 20260504032250 | 11 | 319 | 14.5 | 30.6 | 0.00 | 0.00 | 0.00 | 34 | 1013.4 |
| 20260504031751 | 11 | 3 | 14.5 | 25.7 | 0.00 | 0.00 | 0.00 | 34 | 1013.4 |
| 20260504031246 | 11 | 330 | 14.5 | 30.6 | 0.00 | 0.00 | 0.00 | 34 | 1013.4 |
| 20260504030748 | 11 | 350 | 14.5 | 30.6 | 0.00 | 0.00 | 0.00 | 34 | 1013.0 |
| 20260504030246 | 12 | 14 | 14.5 | 30.6 | 0.00 | 0.00 | 0.00 | 35 | 1013.0 |
| 20260504025246 | 12 | 342 | 14.5 | 38.6 | 0.00 | 0.00 | 0.00 | 35 | 1012.9 |
| 20260504024747 | 12 | 343 | 14.5 | 38.6 | 0.00 | 0.00 | 0.00 | 36 | 1012.8 |
| 20260504024247 | 12 | 354 | 12.9 | 22.5 | 0.00 | 0.00 | 0.00 | 37 | 1012.8 |
| 20260504023753 | 12 | 339 | 12.9 | 24.1 | 0.00 | 0.00 | 0.00 | 39 | 1012.8 |
| 20260504023247 | 12 | 327 | 12.9 | 24.1 | 0.00 | 0.00 | 0.00 | 38 | 1012.7 |
| 20260504022748 | 12 | 340 | 9.7 | 22.5 | 0.00 | 0.00 | 0.00 | 39 | 1012.9 |
| 20260504022247 | 12 | 331 | 9.7 | 22.5 | 0.00 | 0.00 | 0.00 | 39 | 1012.8 |
| 20260504021748 | 12 | 16 | 9.7 | 20.9 | 0.00 | 0.00 | 0.00 | 39 | 1012.8 |
| 20260504021246 | 12 | 341 | 9.7 | 20.9 | 0.00 | 0.00 | 0.00 | 40 | 1012.8 |
| 20260504020750 | 12 | 356 | 9.7 | 20.9 | 0.00 | 0.00 | 0.00 | 40 | 1012.7 |
| 20260504020244 | 12 | 336 | 9.7 | 20.9 | 0.00 | 0.00 | 0.00 | 40 | 1012.8 |
| 20260504015745 | 12 | 354 | 11.3 | 20.9 | 0.00 | 0.00 | 0.00 | 39 | 1012.7 |
| 20260504015245 | 12 | 359 | 11.3 | 30.6 | 0.00 | 0.00 | 0.00 | 39 | 1012.7 |
| 20260504014745 | 13 | 347 | 11.3 | 30.6 | 0.00 | 0.00 | 0.00 | 38 | 1012.8 |
| 20260504013751 | 13 | 351 | 11.3 | 22.5 | 0.00 | 0.00 | 0.00 | 37 | 1012.6 |
| 20260504013245 | 13 | 348 | 11.3 | 22.5 | 0.00 | 0.00 | 0.00 | 37 | 1012.5 |
| 20260504012745 | 13 | 347 | 11.3 | 24.1 | 0.00 | 0.00 | 0.00 | 37 | 1012.2 |
| 20260504012245 | 13 | 14 | 14.5 | 30.6 | 0.00 | 0.00 | 0.00 | 37 | 1012.2 |
| 20260504011743 | 13 | 353 | 14.5 | 30.6 | 0.00 | 0.00 | 0.00 | 37 | 1012.2 |
| 20260504010743 | 13 | 328 | 14.5 | 30.6 | 0.00 | 0.00 | 0.00 | 37 | 1011.9 |
| 20260504010243 | 13 | 332 | 14.5 | 30.6 | 0.00 | 0.00 | 0.00 | 37 | 1012.1 |
| 20260504005743 | 13 | 338 | 14.5 | 27.4 | 0.00 | 0.00 | 0.00 | 39 | 1012.1 |
| 20260504005242 | 14 | 336 | 11.3 | 27.4 | 0.00 | 0.00 | 0.00 | 39 | 1011.8 |
| 20260504004743 | 14 | 335 | 9.7 | 24.1 | 0.00 | 0.00 | 0.00 | 38 | 1011.9 |
| 20260504004243 | 14 | 336 | 11.3 | 24.1 | 0.00 | 0.00 | 0.00 | 38 | 1011.8 |
| 20260504003750 | 14 | 12 | 12.9 | 24.1 | 0.00 | 0.00 | 0.00 | 39 | 1011.7 |
| 20260504003244 | 14 | 330 | 11.3 | 24.1 | 0.00 | 0.00 | 0.00 | 38 | 1011.7 |
| 20260504002743 | 13 | 337 | 9.7 | 22.5 | 0.00 | 0.00 | 0.00 | 39 | 1011.6 |
| 20260504002242 | 14 | 339 | 12.9 | 30.6 | 0.00 | 0.00 | 0.00 | 38 | 1011.8 |
| 20260504001240 | 14 | 330 | 12.9 | 29.0 | 0.00 | 0.00 | 0.00 | 38 | 1011.7 |
| 20260504000741 | 14 | 5 | 11.3 | 25.7 | 0.00 | 0.00 | 0.00 | 38 | 1011.7 |
| 20260504000241 | 14 | 328 | 12.9 | 25.7 | 0.00 | 0.00 | 0.00 | 38 | 1011.6 |
| 20260503235741 | 14 | 334 | 12.9 | 32.2 | 0.00 | 0.00 | 0.00 | 38 | 1011.6 |
| 20260503235242 | 14 | 323 | 11.3 | 32.2 | 0.00 | 0.00 | 0.00 | 38 | 1011.6 |
| 20260503234741 | 14 | 336 | 11.3 | 22.5 | 0.00 | 0.00 | 0.00 | 39 | 1011.5 |
| 20260503234242 | 14 | 352 | 11.3 | 27.4 | 0.00 | 0.00 | 0.00 | 39 | 1011.5 |
| 20260503233746 | 15 | 351 | 11.3 | 27.4 | 0.00 | 0.00 | 0.00 | 38 | 1011.6 |
| 20260503233239 | 15 | 333 | 12.9 | 29.0 | 0.00 | 0.00 | 0.00 | 38 | 1011.5 |
| 20260503232738 | 15 | 337 | 12.9 | 29.0 | 0.00 | 0.00 | 0.00 | 37 | 1011.3 |
| 20260503232238 | 15 | 349 | 12.9 | 24.1 | 0.00 | 0.00 | 0.00 | 37 | 1011.3 |
| 20260503231739 | 15 | 320 | 11.3 | 22.5 | 0.00 | 0.00 | 0.00 | 37 | 1011.4 |
| 20260503231236 | 15 | 15 | 12.9 | 37.0 | 0.00 | 0.00 | 0.00 | 37 | 1011.2 |
| 20260503230736 | 15 | 313 | 14.5 | 37.0 | 0.00 | 0.00 | 0.00 | 36 | 1011.3 |
| 20260503230237 | 16 | 13 | 12.9 | 29.0 | 0.00 | 0.00 | 0.00 | 36 | 1011.2 |
| 20260503225737 | 16 | 343 | 12.9 | 29.0 | 0.00 | 0.00 | 0.00 | 35 | 1011.0 |
| 20260503225237 | 16 | 349 | 14.5 | 37.0 | 0.00 | 0.00 | 0.00 | 34 | 1010.7 |
| 20260503224737 | 16 | 334 | 14.5 | 37.0 | 0.00 | 0.00 | 0.00 | 34 | 1010.9 |
| 20260503224237 | 16 | 341 | 12.9 | 32.2 | 0.00 | 0.00 | 0.00 | 34 | 1010.6 |
| 20260503223737 | 16 | 353 | 11.3 | 24.1 | 0.00 | 0.00 | 0.00 | 34 | 1010.7 |
| 20260503223238 | 16 | 338 | 12.9 | 32.2 | 0.00 | 0.00 | 0.00 | 34 | 1010.8 |
| 20260503222736 | 16 | 340 | 12.9 | 32.2 | 0.00 | 0.00 | 0.00 | 34 | 1010.7 |
| 20260503222236 | 16 | 329 | 12.9 | 25.7 | 0.00 | 0.00 | 0.00 | 34 | 1010.7 |
| 20260503221737 | 16 | 324 | 14.5 | 32.2 | 0.00 | 0.00 | 0.00 | 34 | 1010.5 |
| 20260503221237 | 16 | 324 | 12.9 | 32.2 | 0.00 | 0.00 | 0.00 | 34 | 1010.7 |
| 20260503220237 | 16 | 279 | 12.9 | 29.0 | 0.00 | 0.00 | 0.00 | 33 | 1010.6 |
| 20260503215737 | 16 | 348 | 12.9 | 29.0 | 0.00 | 0.00 | 0.00 | 33 | 1010.5 |
| 20260503215237 | 16 | 320 | 12.9 | 22.5 | 0.00 | 0.00 | 0.00 | 34 | 1010.3 |
| 20260503214738 | 16 | 343 | 12.9 | 32.2 | 0.00 | 0.00 | 0.00 | 34 | 1010.3 |
| 20260503214237 | 16 | 348 | 12.9 | 32.2 | 0.00 | 0.00 | 0.00 | 34 | 1010.6 |
| 20260503213735 | 16 | 327 | 12.9 | 29.0 | 0.00 | 0.00 | 0.00 | 35 | 1010.5 |
| 20260503213235 | 16 | 338 | 12.9 | 29.0 | 0.00 | 0.00 | 0.00 | 35 | 1010.5 |
| 20260503212235 | 16 | 324 | 14.5 | 33.8 | 0.00 | 0.00 | 0.00 | 35 | 1010.5 |
| 20260503211234 | 16 | 327 | 14.5 | 27.4 | 0.00 | 0.00 | 0.00 | 35 | 1010.8 |
| 20260503210736 | 16 | 342 | 12.9 | 25.7 | 0.00 | 0.00 | 0.00 | 35 | 1010.6 |
| 20260503210235 | 16 | 336 | 12.9 | 27.4 | 0.00 | 0.00 | 0.00 | 35 | 1010.7 |
| 20260503205735 | 16 | 1 | 12.9 | 27.4 | 0.00 | 0.00 | 0.00 | 35 | 1010.7 |
| 20260503205235 | 16 | 358 | 12.9 | 32.2 | 0.00 | 0.00 | 0.00 | 35 | 1010.6 |
| 20260503204733 | 16 | 331 | 14.5 | 32.2 | 0.00 | 0.00 | 0.00 | 35 | 1010.6 |
| 20260503204234 | 16 | 331 | 14.5 | 27.4 | 0.00 | 0.00 | 0.00 | 34 | 1010.7 |
| 20260503203731 | 16 | 347 | 14.5 | 35.4 | 0.00 | 0.00 | 0.00 | 35 | 1010.6 |
| 20260503203231 | 16 | 2 | 14.5 | 35.4 | 0.00 | 0.00 | 0.00 | 35 | 1010.6 |
| 20260503202731 | 16 | 15 | 12.9 | 25.7 | 0.00 | 0.00 | 0.00 | 34 | 1010.5 |
| 20260503202232 | 16 | 343 | 14.5 | 27.4 | 0.00 | 0.00 | 0.00 | 34 | 1010.6 |
| 20260503201231 | 17 | 338 | 16.1 | 37.0 | 0.00 | 0.00 | 0.00 | 33 | 1010.6 |
| 20260503200731 | 17 | 301 | 14.5 | 37.0 | 0.00 | 0.00 | 0.00 | 33 | 1010.3 |
| 20260503200231 | 17 | 341 | 12.9 | 32.2 | 0.00 | 0.00 | 0.00 | 32 | 1010.5 |
| 20260503195731 | 17 | 330 | 12.9 | 32.2 | 0.00 | 0.00 | 0.00 | 32 | 1010.0 |
| 20260503194730 | 17 | 338 | 14.5 | 29.0 | 0.00 | 0.00 | 0.00 | 33 | 1010.2 |
| 20260503194229 | 17 | 333 | 16.1 | 32.2 | 0.00 | 0.00 | 0.00 | 33 | 1010.3 |
| 20260503193729 | 17 | 335 | 17.7 | 32.2 | 0.00 | 0.00 | 0.00 | 32 | 1010.0 |
| 20260503193229 | 18 | 343 | 16.1 | 30.6 | 0.00 | 0.00 | 0.00 | 33 | 1010.3 |
| 20260503192730 | 18 | 336 | 12.9 | 29.0 | 0.00 | 0.00 | 0.00 | 32 | 1010.0 |
| 20260503192229 | 18 | 331 | 12.9 | 29.0 | 0.00 | 0.00 | 0.00 | 31 | 1009.4 |
| 20260503191729 | 18 | 329 | 12.9 | 29.0 | 0.00 | 0.00 | 0.00 | 32 | 1010.0 |
| 20260503190730 | 19 | 350 | 12.9 | 33.8 | 0.00 | 0.00 | 0.00 | 31 | 1009.8 |
| 20260503190229 | 19 | 343 | 16.1 | 38.6 | 0.00 | 0.00 | 0.00 | 31 | 1009.8 |
| 20260503185730 | 19 | 358 | 16.1 | 38.6 | 0.00 | 0.00 | 0.00 | 30 | 1009.7 |
| 20260503185233 | 19 | 332 | 12.9 | 27.4 | 0.00 | 0.00 | 0.00 | 31 | 1009.5 |
| 20260503184728 | 18 | 12 | 12.9 | 29.0 | 0.00 | 0.00 | 0.00 | 32 | 1009.8 |
| 20260503184229 | 19 | 332 | 11.3 | 29.0 | 0.00 | 0.00 | 0.00 | 31 | 1009.7 |
| 20260503183729 | 19 | 311 | 11.3 | 24.1 | 0.00 | 0.00 | 0.00 | 31 | 1010.2 |
| 20260503183229 | 19 | 329 | 12.9 | 24.1 | 0.00 | 0.00 | 0.00 | 31 | 1009.4 |
| 20260503182728 | 19 | 337 | 14.5 | 27.4 | 0.00 | 0.00 | 0.00 | 31 | 1009.7 |
| 20260503181729 | 19 | 336 | 12.9 | 29.0 | 0.00 | 0.00 | 0.00 | 31 | 1009.7 |
| 20260503180726 | 19 | 352 | 11.3 | 29.0 | 0.00 | 0.00 | 0.00 | 31 | 1009.5 |
| 20260503180226 | 19 | 313 | 11.3 | 27.4 | 0.00 | 0.00 | 0.00 | 32 | 1010.1 |
| 20260503175728 | 19 | 1 | 12.9 | 27.4 | 0.00 | 0.00 | 0.00 | 32 | 1009.8 |
| 20260503175227 | 18 | 347 | 14.5 | 29.0 | 0.00 | 0.00 | 0.00 | 32 | 1009.7 |
| 20260503174727 | 18 | 349 | 16.1 | 30.6 | 0.00 | 0.00 | 0.00 | 32 | 1009.7 |
| 20260503174227 | 18 | 335 | 16.1 | 30.6 | 0.00 | 0.00 | 0.00 | 32 | 1009.5 |
| 20260503173727 | 18 | 326 | 16.1 | 30.6 | 0.00 | 0.00 | 0.00 | 32 | 1009.8 |
| 20260503173227 | 18 | 357 | 14.5 | 32.2 | 0.00 | 0.00 | 0.00 | 32 | 1009.6 |
| 20260503172727 | 18 | 329 | 12.9 | 32.2 | 0.00 | 0.00 | 0.00 | 31 | 1009.6 |
| 20260503171728 | 18 | 323 | 12.9 | 24.1 | 0.00 | 0.00 | 0.00 | 33 | 1009.5 |
| 20260503171227 | 18 | 340 | 11.3 | 24.1 | 0.00 | 0.00 | 0.00 | 33 | 1009.6 |
| 20260503170727 | 18 | 345 | 11.3 | 24.1 | 0.00 | 0.00 | 0.00 | 34 | 1009.5 |
| 20260503170224 | 18 | 348 | 11.3 | 24.1 | 0.00 | 0.00 | 0.00 | 34 | 1009.6 |
| 20260503150716 | 15 | 325 | 9.7 | 20.9 | 0.00 | 0.00 | 0.00 | 42 | 1009.3 |
| 20260503150216 | 15 | 326 | 11.3 | 24.1 | 0.00 | 0.00 | 0.00 | 42 | 1009.4 |
| 20260503140213 | 13 | 290 | 8.0 | 17.7 | 0.00 | 0.00 | 0.00 | 45 | 1009.3 |
| 20260503131208 | 10 | 278 | 4.8 | 11.3 | 0.00 | 0.00 | 0.00 | 50 | 1009.4 |
| 20260503130707 | 10 | 279 | 4.8 | 11.3 | 0.00 | 0.00 | 0.00 | 50 | 1009.4 |
| 20260503130208 | 10 | 300 | 3.2 | 11.3 | 0.00 | 0.00 | 0.00 | 51 | 1009.5 |
| 20260503120151 | 10 | 297 | 3.2 | 9.7 | 0.00 | 0.00 | 0.00 | 50 | 1009.7 |
| 20260503110648 | 10 | 214 | 3.2 | 6.4 | 0.00 | 0.00 | 0.00 | 49 | 1009.7 |
| 20260503110146 | 10 | 218 | 3.2 | 6.4 | 0.00 | 0.00 | 0.00 | 49 | 1009.8 |
| 20260503090140 | 10 | 211 | 3.2 | 6.4 | 0.00 | 0.00 | 0.00 | 46 | 1010.5 |
| 20260503081139 | 11 | 252 | 3.2 | 8.0 | 0.00 | 0.00 | 0.00 | 44 | 1010.9 |
| 20260503080640 | 11 | 240 | 3.2 | 6.4 | 0.00 | 0.00 | 0.00 | 44 | 1011.0 |
| 20260503080140 | 12 | 225 | 3.2 | 6.4 | 0.00 | 0.00 | 0.00 | 43 | 1011.0 |
| 20260503072637 | 13 | 319 | 4.8 | 12.9 | 0.00 | 0.00 | 0.00 | 40 | 1010.9 |
| 20260503072138 | 13 | 306 | 6.4 | 12.9 | 0.00 | 0.00 | 0.00 | 40 | 1010.9 |
| 20260503071637 | 13 | 299 | 6.4 | 11.3 | 0.00 | 0.00 | 0.00 | 40 | 1010.9 |
| 20260503071138 | 13 | 321 | 6.4 | 11.3 | 0.00 | 0.00 | 0.00 | 40 | 1010.9 |